Orbital Elements at Epoch 2459200.5 (2020-Dec-17.0) TDB
Reference: JPL 45 (heliocentric ecliptic J2000)
Element | Value | Uncertainty (1-sigma) | Units |
e | .1337866734030179 | 2.3763e-08 | |
a | 3.149955500243744 | 1.2389e-08 | au |
q | 2.728533432498594 | 7.8724e-08 | au |
i | 12.26547266873543 | 1.0826e-06 | deg |
node | 99.51552398180395 | 4.573e-06 | deg |
peri | 248.8724292729299 | 1.0002e-05 | deg |
M | 308.4082147252365 | 8.1142e-06 | deg |
tp | 2459493.139610615459 (2021-Oct-05.63961062) | 4.6733e-05 | TDB |
period | 2041.996788064208 5.59 | 1.2047e-05 3.298e-08 | d yr |
n | .1762980246121133 | 1.0401e-09 | deg/d |
Q | 3.571377567988893 | 1.4047e-08 | au |
|
| | Orbit Determination Parameters
Additional Information
|